Regional Weather Roundup
Issued by NWS

Home | Current Version | Previous Version | Graphics & Text | Print | Product List | Glossary Off
Versions: 1 2 3 4 5 6 7 8 9 10 11 12 13 14 15 16 17 18 19 20 21 22 23 24 25 26 27 28 29 30 31 32 33 34 35 36 37 38 39 40 41 42 43 44 45 46 47 48 49 50

000
ASUS43 KTOP 110708
RWRKS

WEATHER ROUNDUP FOR KANSAS
NATIONAL WEATHER SERVICE GOODLAND KS
100 AM CST MON DEC 11 2017

NOTE:  "FAIR" INDICATES FEW OR NO CLOUDS BELOW 12,000 FEET WITH NO
SIGNIFICANT WEATHER AND/OR OBSTRUCTIONS TO VISIBILITY.

KSZ001>006-013>018-027>032-041>047-110800-
NORTHWEST KANSAS

CITY           SKY/WX    TMP DP  RH WIND       PRES   REMARKS
GOODLAND       CLOUDY    32   2  27 W14       30.24F WCI  22
HAYS           CLEAR     38   9  30 W12       30.19F WCI  30
HILL CITY      CLEAR     37  10  32 W12       30.19F WCI  29
RUSSELL        CLEAR     34  14  43 W12       30.17S WCI  25
$$

KSZ061>065-074>080-084>089-110800-
SOUTHWEST KANSAS

CITY           SKY/WX    TMP DP  RH WIND       PRES   REMARKS
DODGE CITY     CLOUDY    43   6  21 W14       30.24F
ELKHART        CLOUDY    45  13  27 W16       30.28F
GARDEN CITY    CLOUDY    33   5  30 W13       30.26S WCI  24
GREAT BEND     CLEAR     31  13  47 W7        30.20F
LIBERAL        CLOUDY    35   6  29 W12       30.28F WCI  27
PRATT          CLEAR     38   8  28 W14       30.21F WCI  30
$$

KSZ066>073-081>083-090>101-110800-
SOUTHEAST KANSAS

CITY           SKY/WX    TMP DP  RH WIND       PRES   REMARKS
CHANUTE        CLEAR     37  21  52 S5        30.16F
COFFEYVILLE    CLEAR     32  24  72 S5        30.19S
HUTCHINSON     CLEAR     37  15  40 W5        30.18F
MEDICINE LODGE   N/A     36  15  42 N5        30.21F
NEWTON         PTCLDY    39  15  37 W8        30.17F
PARSONS        CLEAR     28  22  78 CALM      30.18F
WICHITA INTL   CLEAR     43  17  35 W9        30.17F
WICHITA JABRA  CLEAR     45  17  32 W10       30.17F
WICHITA MCCONL PTCLDY    45  17  31 SW7       30.18F
WINFIELD       CLEAR     31  21  66 CALM      30.20F
$$

KSZ007>012-019>026-033>040-048>060-102>105-110800-
NORTHEAST KANSAS

CITY           SKY/WX    TMP DP  RH WIND       PRES   REMARKS
CONCORDIA      CLEAR     41  15  35 W13       30.10F
EMPORIA        CLEAR     47  17  30 W10       30.13F
LAWRENCE       CLEAR     24  21  88 CALM      30.10F
MANHATTAN      CLEAR     39  17  41 SW10      30.12S WCI  32
MARYSVILLE     CLOUDY    36  18  48 SW6       30.07F
OLATHE IND     CLEAR     33  23  66 S6        30.11F
OLATHE EXE     CLEAR     33  23  66 S5        30.10F
SALINA         CLEAR     45  15  30 NW6       30.15F
TOPEKA BILLARD CLEAR     28  25  88 CALM      30.10F
TOPEKA FORBES  CLEAR     32  20  61 S9        30.10F
$$



USA.gov is the U.S. government's official web portal to all federal, state and local government web resources and services.